Regional Weather Roundup
Issued by NWS Charleston, WV

Home | Current Version | Previous Version | Graphics & Text | Print | Product List | Glossary On
Versions: 1 2 3 4 5 6 7 8 9 10 11 12 13 14 15 16 17 18 19 20 21 22 23 24 25 26 27 28 29 30 31 32 33 34 35 36 37 38 39 40 41 42 43 44 45 46 47 48 49 50
000
ASUS41 KRLX 020010
RWRRLX
West Virginia Regional Weather Roundup
National Weather Service Charleston WV
800 PM EDT MON JUN 01 2015

Note: "fair" indicates few or no clouds below 12,000 feet with no
significant weather and/or obstructions to visibility.

WVZ003-020100-
Northern Panhandle of West Virginia

CITY           SKY/WX    TMP DP  RH WIND       PRES   REMARKS
WHEELING       CLOUDY    52  48  86 NE9       30.12S
$$

WVZ009-020100-
Northwest West Virginia

CITY           SKY/WX    TMP DP  RH WIND       PRES   REMARKS
PARKERSBURG    CLOUDY    55  52  89 N6        30.12S
$$

WVZ006-020100-
Western West Virginia

CITY           SKY/WX    TMP DP  RH WIND       PRES   REMARKS
HUNTINGTON     CLOUDY    55  54  96 N7        30.09R FOG
$$

WVZ015-020100-
West Central West Virginia

CITY           SKY/WX    TMP DP  RH WIND       PRES   REMARKS
CHARLESTON     LGT RAIN  60  57  89 NW5       30.07R FOG
$$

WVZ022-031-020100-
North Central West Virginia

CITY           SKY/WX    TMP DP  RH WIND       PRES   REMARKS
CLARKSBURG     CLOUDY    59  54  83 NE8       30.09R
MORGANTOWN     CLOUDY    58  49  72 N10       30.10S
$$

WVZ025-035-042-045-020100-
Southern West Virginia

CITY           SKY/WX    TMP DP  RH WIND       PRES   REMARKS
BECKLEY        LGT RAIN  61  59  93 CALM      30.08R
LOGAN          FOG       61  61 100 CALM      30.05R VSB<1/4
BLUEFIELD      LGT RAIN  64  60  87 W6        30.12R
LEWISBURG      LGT RAIN  70  65  85 W3        30.08R
$$

WVZ047-020100-
Northern Mountains of West Virginia

CITY           SKY/WX    TMP DP  RH WIND       PRES   REMARKS
ELKINS         CLOUDY    62  59  90 N6        30.09R
$$

WVZ052-020100-
Eastern Panhandle of West Virginia

CITY           SKY/WX    TMP DP  RH WIND       PRES   REMARKS
MARTINSBURG    RAIN      69  65  86 N5        30.02S FOG
PETERSBURG     CLOUDY    69  67  94 CALM      30.03R
$$


USA.gov is the U.S. government's official web portal to all federal, state and local government web resources and services.